This is the latest recevied weather packets stored in our database for station/object W4OTS. If no packets are shown the sender has not sent any weather packets the latest 10 day(s).
| Time | Temp. | Humidity | Pressure | Rain* | Wind** | Luminosity | Snow |
|---|---|---|---|---|---|---|---|
| 1778122065 | 17.78° C | 99% | 1015.4 hPa | 3.05 mm | - | 0 W/m² | - |
| 1778121762 | 17.78° C | 99% | 1016 hPa | 3.05 mm | - | 0 W/m² | - |
| 1778121458 | 17.78° C | 99% | 1016 hPa | 3.05 mm | - | 0 W/m² | - |
| 1778121155 | 17.78° C | 99% | 1016.1 hPa | 1.27 mm | - | 0 W/m² | - |
| 1778120852 | 17.78° C | 99% | 1016 hPa | 0 mm | - | 0 W/m² | - |
| 1778120548 | 17.78° C | 99% | 1015.6 hPa | 0 mm | - | 0 W/m² | - |
| 1778120244 | 17.78° C | 99% | 1015.5 hPa | 0 mm | - | 0 W/m² | - |
| 1778119940 | 17.78° C | 99% | 1015.2 hPa | 0 mm | - | 0 W/m² | - |
| 1778119639 | 17.78° C | 99% | 1015.6 hPa | 1.78 mm | - | 0 W/m² | - |
| 1778119334 | 17.78° C | 99% | 1015.5 hPa | 1.78 mm | - | 0 W/m² | - |
| 1778119033 | 17.78° C | 99% | 1015.3 hPa | 0 mm | - | 0 W/m² | - |
| 1778118730 | 17.78° C | 99% | 1015.3 hPa | 1.27 mm | - | 0 W/m² | - |
| 1778118426 | 17.78° C | 99% | 1015 hPa | 3.05 mm | - | 0 W/m² | - |
| 1778118122 | 17.78° C | 99% | 1015 hPa | 1.78 mm | - | 0 W/m² | - |
| 1778117819 | 18.33° C | 99% | 1014.9 hPa | 3.05 mm | - | 0 W/m² | - |
| 1778117516 | 18.33° C | 99% | 1015.3 hPa | 4.83 mm | - | 0 W/m² | - |
| 1778117214 | 18.33° C | 99% | 1015.6 hPa | 1.78 mm | - | 0 W/m² | - |
| 1778116909 | 18.33° C | 99% | 1015.4 hPa | 0 mm | - | 0 W/m² | - |
| 1778116607 | 18.33° C | 99% | 1014.9 hPa | 0 mm | - | 0 W/m² | - |
| 1778116303 | 18.89° C | 99% | 1014.7 hPa | 0 mm | - | 0 W/m² | - |
| 1778115998 | 18.89° C | 99% | 1014.6 hPa | 0 mm | - | 0 W/m² | - |
| 1778115694 | 18.89° C | 99% | 1014.7 hPa | 0 mm | - | 0 W/m² | - |
| 1778115392 | 18.89° C | 99% | 1014.5 hPa | 1.27 mm | - | 0 W/m² | - |
| 1778115087 | 18.89° C | 99% | 1014.3 hPa | 1.27 mm | - | 0 W/m² | - |
| 1778114785 | 18.89° C | 99% | 1014.2 hPa | 0 mm | - | 0 W/m² | - |
* Rain latest hour (hover to see other rain measurements)
** Current wind speed in m/s (hover to see current wind gust speed)